Home > Weather > Nadi > Past weeks

Flag for Fiji Past Weather in Nadi, Fiji — Yesterday and Last 2 Weeks

Now
81 °F

Passing clouds.


Feels Like: 82 °F
Forecast: 72 / 84 °F
Wind: 10 mph from West

Location: Nandi

Current Time: Aug 26, 2016 at 1:48:50 PM

Latest Report: Aug 26, 2016 at 1:00 PM


Visibility: N/A

Pressure: 30.04 "Hg

Humidity: 54%

Dew Point: 63 °F

Location of NadiLocation

Past Weather in Nadi — Graph

°F

Nadi Temperature Yesterday

Maximum temperature yesterday: 79 °F (at 10:00 AM)
Minimum temperature yesterday: 64 °F (at 3:00 AM)
Average temperature yesterday: 72 °F

High & Low Weather Summary for the Past Weeks

 TemperatureHumidityPressure
High86 °F (Aug 12, 1:00 PM)100% (Aug 17, 4:00 AM)30.09 "Hg (Aug 17, 4:00 AM)
Low61 °F (Aug 21, 5:00 AM)35% (Aug 21, 1:00 PM)29.80 "Hg (Aug 16, 4:00 PM)
Average73 °F79%29.92 "Hg
* Reported Aug 11 1:00 PM — Aug 26 1:00 PM, Nadi, Weather by CustomWeather, © 2016

Note: Actual official high and low records may vary slightly from our data, if they occured in-between our weather recording intervals... More about our weather records

Advertising

Nadi Weather History for the Previous 24 Hours

Scroll right to see more
 ConditionsComfort  
Time TempWeatherWind HumidityBarometerVisibility
1:00 PM
Fri, Aug 26
81 °FPassing clouds.10 mph54%30.04 "HgN/A
12:00 PM79 °FPassing clouds.12 mph58%30.04 "HgN/A
11:00 AM81 °FPassing clouds.7 mph54%30.07 "HgN/A
10:00 AM81 °FPassing clouds.3 mph54%30.09 "HgN/A
9:00 AM77 °FPassing clouds.3 mph61%30.09 "HgN/A
8:00 AM72 °FPassing clouds.3 mph73%30.07 "HgN/A
7:00 AM64 °FPassing clouds.7 mph83%30.07 "HgN/A
6:00 AM64 °FPassing clouds.3 mph83%30.04 "HgN/A
5:00 AM66 °FPassing clouds.6 mph78%30.01 "HgN/A
4:00 AM66 °FPassing clouds.7 mph78%30.01 "HgN/A
3:00 AM64 °FPassing clouds.3 mph88%30.01 "HgN/A
2:00 AM64 °FPassing clouds.5 mph88%30.01 "HgN/A
1:00 AM66 °FPassing clouds.5 mph83%30.01 "HgN/A
12:00 AM68 °FPassing clouds.5 mph78%30.04 "HgN/A
11:00 PM
Thu, Aug 25
68 °FPassing clouds.6 mph78%30.04 "HgN/A
10:00 PM70 °FPassing clouds.7 mph78%30.04 "HgN/A
9:00 PM70 °FPassing clouds.6 mph83%30.04 "HgN/A
8:00 PM72 °FPassing clouds.5 mph78%30.01 "HgN/A
7:00 PM75 °FPassing clouds.3 mph69%29.98 "HgN/A
6:00 PM77 °FPassing clouds.5 mph65%29.95 "HgN/A
5:00 PM79 °FPassing clouds.9 mph61%29.95 "HgN/A
4:00 PM79 °FPassing clouds.9 mph61%29.95 "HgN/A
3:00 PM79 °FPassing clouds.10 mph65%29.95 "HgN/A
2:00 PM79 °FPassing clouds.12 mph61%29.98 "HgN/A
1:00 PM79 °FPassing clouds.12 mph61%29.98 "HgN/A
Weather by CustomWeather, © 2016

See weather overviewHow to use our weather pages